Zurück zum Katalog

STARLINK-38263

AktivKommunikationSSO
NORAD 100264·PAYLOAD·🇺🇸 United States

Gestartet Aug 8, 2026 von Vandenberg Space Force Base

Loading…

Nächste Überflüge (nächste 24 Stunden)

TLE

AktuellSource: Space-Track

Epoche: Sep 14, 2026, 15:49 UTC

1 A0264U 26181U   26257.65909575  .00185256  00000-0  12166-2 0  9993
2 A0264  97.2835 301.0091 0001476 101.2146 258.9285 15.75181949  7034

Verfolge STARLINK-38263 in Echtzeit mit AllMySat

Download on the App Store